Vorticity
8 8 8 8 8 9 9 9 9 9 9 9 8 7 7 6 6 5 5 6 6 5 6 8 9 10 12 13 13 13 13 12 10 9 8 8 8 9 11 13 13 11 10 8 6 6 5 5 6 6 7 8 9 10 11 11 11 11 10 10 9 8 7 7 6 6 6 5 5
7 7 8 8 9 10 10 10 10 9 9 8 7 6 5 5 5 5 6 7 7 8 9 11 12 12 12 12 12 11 9 8 6 6 5 6 7 9 11 13 12 10 8 6 5 5 5 5 6 7 8 9 10 10 11 10 10 10 9 8 7 7 6 6 6 5 5 5 5
8 8 9 9 10 11 11 10 9 8 7 6 5 5 5 5 6 7 8 9 10 11 12 11 11 11 11 10 8 7 5 4 3 4 4 6 8 11 13 13 11 9 7 5 5 5 5 6 7 8 9 10 10 10 10 10 9 8 7 7 7 6 5 5 5 5 5 5 6
9 10 10 10 11 11 10 8 7 6 5 4 4 5 6 8 9 10 11 12 13 12 11 11 11 10 9 7 5 4 3 2 3 4 6 8 11 13 13 12 10 7 5 5 5 5 6 6 7 8 9 9 9 9 9 9 7 7 6 6 6 6 5 5 5 5 6 6 6
10 10 10 10 10 9 8 6 5 4 4 4 5 7 9 11 12 13 13 13 12 12 12 12 10 8 6 5 3 2 2 2 4 7 9 12 14 14 13 10 8 6 5 5 5 6 6 7 8 8 8 8 8 8 8 7 7 6 6 6 6 6 6 6 6 6 6 6 6
10 10 10 9 8 7 6 5 4 4 4 5 8 9 10 11 12 13 13 14 13 13 11 9 7 5 4 3 2 2 3 4 7 10 13 15 15 14 11 8 6 5 5 5 6 6 7 8 8 7 7 7 7 7 7 7 6 6 6 6 6 6 6 6 6 6 6 6 6
9 8 8 8 7 7 6 6 6 6 7 8 9 9 9 9 11 12 13 13 12 10 7 5 4 3 3 2 3 4 5 7 10 13 16 16 14 11 8 6 5 5 5 6 6 7 7 7 7 7 7 6 7 7 7 6 6 6 6 7 6 6 6 6 6 6 6 6 6
8 8 8 8 8 8 7 7 7 8 8 8 8 8 8 8 10 10 11 10 8 6 5 4 4 4 4 4 5 6 8 11 13 15 15 14 11 8 6 5 5 5 6 6 7 7 7 6 6 6 6 6 6 7 7 7 7 7 7 7 7 6 6 6 6 5 5 5 5
9 9 10 10 10 10 9 9 8 8 7 7 7 6 7 7 8 8 8 6 6 5 4 4 4 4 5 6 7 9 12 14 16 15 13 10 8 6 5 5 5 5 6 6 6 7 6 6 6 6 6 6 7 7 7 7 7 7 7 7 7 6 6 5 5 5 4 4 4
9 10 11 11 11 10 9 8 7 6 6 6 6 6 7 7 7 6 6 6 5 5 5 5 5 5 7 9 11 13 15 16 14 12 10 7 6 6 5 5 5 5 6 6 6 6 6 5 5 6 6 7 7 7 8 7 7 7 7 6 6 5 5 4 4 4 4 4 4
10 10 10 10 9 8 7 6 6 6 6 7 6 6 6 6 6 6 6 6 6 6 6 6 7 8 10 13 15 16 15 13 11 9 8 7 6 5 5 5 5 6 6 6 6 5 5 5 6 6 7 7 8 8 8 8 7 7 6 6 5 4 4 4 4 4 4 4 4
9 9 8 8 7 6 6 6 6 6 7 7 6 6 5 5 5 6 6 7 7 7 7 8 10 12 14 15 15 13 12 10 9 8 7 6 5 5 4 5 5 6 6 6 5 5 5 6 6 7 8 8 8 8 8 7 7 6 5 4 4 3 3 4 4 4 4 4 4
7 7 7 7 6 6 6 6 6 6 6 6 6 5 5 5 5 6 7 8 8 9 9 11 13 14 14 13 12 10 9 8 7 6 6 5 5 5 5 5 6 6 6 5 5 5 6 6 7 8 8 9 9 8 7 6 5 5 4 3 3 3 3 3 4 4 4 5 5
7 7 7 7 7 7 7 7 7 7 6 6 6 5 5 6 7 8 9 9 10 11 12 13 13 12 12 10 9 8 7 7 6 5 5 5 5 5 6 6 6 6 5 5 6 6 7 8 8 9 9 9 8 7 6 5 4 3 3 3 3 3 3 4 4 4 5 5 6
8 8 8 8 8 8 8 8 7 7 7 7 6 6 7 7 8 9 10 10 11 12 12 12 11 10 8 7 7 6 6 6 5 5 5 5 6 6 6 6 6 5 6 6 7 8 8 9 9 9 8 7 7 6 5 4 3 3 3 3 3 4 4 4 5 5 6 6 6
8 8 9 9 9 9 9 9 9 9 8 8 8 8 9 10 10 10 10 10 11 11 10 10 9 8 7 6 6 6 6 5 5 6 6 6 6 6 6 6 6 6 7 7 8 9 9 9 9 8 7 6 5 4 4 3 3 3 3 4 4 4 4 5 5 6 6 6 7
9 9 9 10 10 10 10 10 10 10 10 10 10 11 11 11 10 10 9 9 9 9 9 9 8 8 7 6 6 6 6 6 6 6 7 6 6 6 6 6 7 7 8 9 10 10 9 9 8 7 6 5 4 4 3 3 4 4 4 4 4 5 5 5 6 6 7 7 7
10 10 10 10 9 9 10 10 10 11 11 12 13 13 13 12 10 9 9 9 10 10 10 9 8 7 7 7 6 6 6 7 7 7 7 6 6 7 7 8 8 9 10 10 9 9 8 7 6 5 4 4 4 4 4 4 4 4 5 5 5 5 6 6 6 7 7 7 8
10 10 10 10 9 9 10 10 11 12 13 14 14 14 13 12 11 11 11 11 11 10 10 9 8 8 7 7 7 7 7 7 7 7 7 7 7 8 9 9 10 10 9 9 8 7 6 5 5 4 4 4 4 4 4 4 5 5 5 5 6 6 6 7 7 7 8 8 8
10 10 10 10 10 10 11 11 12 13 14 15 15 15 14 14 13 13 12 11 11 10 9 9 8 8 8 7 7 7 7 7 7 7 7 8 9 9 9 9 9 9 8 7 6 6 5 5 4 4 4 4 4 5 5 5 5 5 6 6 6 6 7 7 7 8 8 8 9
11 11 11 12 12 12 12 13 14 14 15 16 16 16 15 14 13 12 11 10 10 9 9 8 8 7 7 7 7 7 7 7 7 8 8 9 9 9 8 8 8 7 6 6 5 5 5 4 5 5 5 5 5 5 5 5 6 6 6 6 6 7 7 7 8 8 9 9 9
12 13 13 13 13 14 14 14 14 15 15 15 15 14 13 12 11 11 10 9 9 8 8 8 7 7 7 7 7 7 7 7 8 8 8 8 8 7 7 7 6 6 6 5 5 5 5 5 5 5 5 5 6 6 6 6 6 6 6 7 7 7 8 8 8 9 9 9 9
14 15 15 15 15 14 14 14 14 14 14 13 13 12 11 10 10 9 9 8 8 7 7 7 7 7 7 7 7 7 7 7 7 7 7 7 7 6 6 6 6 6 5 5 5 5 5 5 6 6 6 6 6 6 6 6 6 7 7 7 7 8 8 9 9 9 9 9 9
16 15 15 15 14 14 14 14 13 13 12 11 10 9 9 8 8 8 7 7 7 7 7 7 7 7 7 7 7 7 7 7 7 6 6 6 6 6 6 6 6 6 6 5 6 6 6 6 6 6 6 6 6 6 6 7 7 7 7 8 8 8 9 9 9 9 9 9 8
15 14 14 13 13 13 12 12 11 11 10 9 9 8 8 7 7 7 7 7 7 7 7 7 7 7 7 7 6 6 6 6 6 6 6 6 6 6 6 6 6 6 6 6 6 6 6 6 6 6 6 6 6 7 7 7 7 8 8 8 9 9 9 9 9 9 9 9 8
12 12 12 11 11 11 11 10 10 9 9 8 7 7 7 7 6 6 6 7 7 7 7 7 7 6 6 6 6 6 6 6 6 6 6 6 6 6 6 6 6 6 6 6 6 6 6 6 7 7 6 7 7 7 7 8 8 9 9 9 9 9 9 9 9 9 9 9 8
10 10 10 10 10 9 9 9 8 8 7 7 6 6 6 6 6 6 7 7 7 7 7 6 6 6 6 6 6 6 6 6 6 6 6 6 6 6 7 7 7 7 7 7 7 7 7 7 7 7 7 7 7 8 8 8 9 9 9 10 9 9 9 9 8 8 8 8 7
8 9 9 9 8 8 8 7 7 6 6 6 6 6 6 6 6 6 7 7 7 6 6 6 6 6 6 6 6 6 6 6 6 6 6 7 7 7 7 7 7 7 7 7 7 7 7 7 7 7 8 8 8 9 9 9 9 9 9 9 9 9 9 8 8 8 7 7 6
8 8 8 8 8 7 7 6 6 6 5 5 5 6 6 6 6 6 6 6 6 6 6 6 6 6 6 6 6 6 6 6 6 6 7 7 7 7 7 7 7 7 7 7 7 7 7 7 8 8 8 9 9 9 9 9 9 9 9 9 8 8 8 8 7 7 7 6 6
8 8 8 8 7 7 6 6 5 5 5 5 5 5 6 6 6 6 6 6 6 6 6 6 6 6 6 6 6 6 6 6 7 7 7 7 7 7 8 8 7 7 7 7 7 8 8 8 9 9 9 9 9 9 9 9 9 9 8 8 8 8 7 7 7 6 6 6 6
8 8 8 7 7 7 6 6 5 5 5 5 5 5 5 6 6 6 6 6 6 6 6 6 6 6 6 6 6 6 6 6 7 7 7 8 8 8 8 8 8 7 7 8 8 8 9 9 9 9 9 9 9 9 9 9 9 9 8 8 8 7 7 7 7 6 6 6 6
8 8 8 8 7 7 7 6 6 6 5 5 5 5 5 6 6 6 6 6 5 5 6 6 6 6 6 6 7 7 7 7 8 8 8 8 8 8 8 8 8 8 8 8 9 9 9 10 10 10 10 9 9 9 9 9 8 8 8 8 7 7 7 7 7 7 7 7 7
9 9 9 8 8 8 7 7 7 6 6 6 6 6 6 6 6 6 6 6 6 6 6 6 6 6 7 7 7 8 8 8 8 8 8 8 8 8 8 8 8 8 9 9 9 10 10 10 10 9 9 9 9 8 8 8 8 7 7 7 7 7 7 7 7 7 7 7 7
9 9 9 9 9 9 8 8 8 7 7 7 7 7 6 6 6 6 6 6 6 7 7 7 7 7 7 8 8 8 8 8 8 8 8 8 8 8 8 8 9 9 9 10 10 10 10 9 9 9 8 8 8 8 8 7 7 7 7 7 7 8 8 8 7 7 7 6 5
10 10 10 10 10 10 9 9 9 9 8 8 8 8 8 7 7 7 7 7 7 8 8 8 8 8 8 8 9 8 8 8 8 8 8 8 8 8 9 9 10 10 10 10 9 9 9 9 8 8 8 8 7 7 7 7 7 7 7 7 8 8 8 7 7 6 5 4 3
10 10 10 10 10 10 10 10 10 10 10 9 9 9 9 9 9 9 8 8 8 8 9 9 9 9 9 9 9 9 9 8 8 8 8 8 8 9 9 10 10 10 10 9 9 9 8 8 8 8 8 7 7 7 7 7 7 7 7 8 8 7 7 6 5 4 3 2 2
10 10 10 10 10 10 10 10 10 10 10 10 10 10 10 10 9 9 9 9 9 9 9 9 9 9 9 9 9 8 8 8 8 8 8 9 9 9 9 10 10 9 9 9 8 8 8 8 8 8 8 8 8 8 7 7 7 8 8 8 7 6 6 5 3 2 2 1 0
9 10 10 10 10 10 10 10 11 11 10 10 10 10 10 10 10 9 9 9 9 9 9 9 9 9 9 8 8 8 8 8 8 9 9 9 9 10 9 9 9 9 9 8 8 8 8 8 8 8 8 8 7 7 7 7 7 7 7 7 6 5 4 3 2 1 0 0 0
9 10 10 10 10 10 10 10 11 11 10 10 10 10 10 10 10 9 9 9 9 9 9 9 9 9 8 8 8 8 9 9 9 9 9 9 9 9 9 9 9 8 8 8 8 8 9 8 8 8 8 7 7 7 7 7 7 7 6 5 4 3 2 1 1 0 0 0 1
10 10 10 10 10 11 11 11 11 11 10 10 10 10 10 10 9 9 9 9 9 9 9 9 8 8 8 8 9 9 9 9 10 10 10 9 9 9 9 9 8 8 8 9 9 8 8 8 8 8 8 7 7 7 7 7 6 5 5 4 2 2 1 0 0 0 1 1 2
11 11 11 11 11 11 11 11 10 10 10 10 10 10 9 9 9 9 9 9 9 9 9 9 9 9 9 9 9 9 9 9 10 10 10 9 9 9 9 9 8 8 8 9 9 8 8 8 8 8 8 7 7 7 6 6 5 4 3 2 1 1 0 0 0 1 2 3 4
Height
5773 5773 5773 5773 5773 5773 5772 5772 5771 5770 5769 5768 5768 5767 5766 5765 5764 5763 5762 5761 5760 5758 5757 5756 5755 5754 5753 5752 5752 5751 5749 5748 5748 5746 5745 5744 5743 5742 5740 5739 5738 5737 5736 5735 5733 5732 5731 5730 5728 5727 5726 5725 5723 5722 5720 5719 5718 5716 5715 5713 5712 5711 5709 5708 5707 5705 5704 5703 5701
5771 5771 5770 5770 5770 5770 5770 5769 5768 5768 5767 5766 5765 5764 5763 5763 5762 5761 5760 5758 5757 5756 5755 5753 5753 5752 5751 5750 5749 5748 5747 5746 5744 5743 5742 5741 5740 5739 5738 5736 5735 5734 5733 5732 5731 5729 5728 5727 5726 5724 5723 5722 5720 5719 5718 5716 5715 5713 5712 5711 5709 5708 5707 5705 5704 5702 5701 5699 5698
5769 5768 5768 5768 5768 5768 5767 5766 5766 5765 5764 5763 5763 5762 5761 5760 5759 5758 5757 5756 5754 5753 5752 5751 5750 5749 5748 5747 5746 5745 5743 5742 5741 5740 5739 5738 5737 5736 5735 5733 5732 5731 5730 5729 5728 5727 5725 5724 5723 5721 5720 5719 5717 5716 5715 5713 5712 5710 5709 5708 5706 5705 5703 5702 5701 5699 5698 5696 5694
5767 5766 5766 5766 5765 5765 5764 5764 5763 5763 5762 5761 5760 5759 5758 5758 5757 5756 5755 5753 5752 5751 5750 5749 5748 5746 5745 5744 5743 5741 5740 5739 5738 5737 5736 5735 5734 5733 5732 5731 5729 5728 5727 5726 5725 5723 5722 5721 5720 5718 5717 5716 5714 5713 5712 5710 5709 5708 5706 5704 5703 5702 5700 5699 5697 5696 5694 5693 5691
5764 5764 5763 5763 5763 5762 5762 5761 5761 5760 5759 5758 5758 5757 5756 5755 5754 5753 5752 5751 5750 5748 5747 5746 5745 5743 5742 5741 5739 5738 5737 5736 5735 5734 5733 5732 5731 5730 5729 5728 5726 5725 5724 5723 5722 5721 5719 5718 5717 5716 5714 5713 5711 5710 5708 5707 5706 5704 5703 5701 5700 5698 5697 5695 5694 5693 5691 5689 5688
5762 5762 5761 5761 5760 5760 5759 5759 5758 5758 5757 5756 5755 5754 5753 5753 5752 5751 5750 5748 5747 5746 5745 5743 5742 5741 5739 5738 5737 5735 5734 5733 5732 5732 5731 5729 5728 5727 5726 5725 5724 5723 5721 5720 5719 5718 5717 5715 5714 5713 5711 5710 5708 5707 5706 5704 5703 5701 5700 5698 5697 5695 5694 5692 5691 5689 5688 5686 5684
5760 5759 5759 5759 5758 5758 5757 5756 5756 5755 5754 5753 5753 5752 5751 5750 5749 5748 5747 5746 5745 5743 5742 5741 5739 5738 5737 5735 5734 5733 5732 5731 5730 5729 5728 5727 5726 5724 5723 5722 5721 5720 5718 5717 5716 5715 5713 5713 5711 5710 5708 5707 5705 5704 5703 5701 5699 5698 5696 5695 5693 5692 5690 5689 5687 5686 5684 5683 5681
5758 5757 5757 5757 5756 5755 5755 5754 5753 5753 5752 5751 5750 5749 5748 5748 5747 5746 5744 5743 5742 5741 5740 5738 5737 5736 5735 5733 5732 5731 5730 5728 5728 5727 5725 5724 5723 5722 5721 5719 5718 5717 5716 5714 5713 5712 5711 5709 5708 5707 5705 5704 5702 5701 5699 5698 5696 5695 5693 5692 5690 5688 5687 5685 5684 5682 5681 5679 5677
5755 5755 5754 5754 5754 5753 5753 5752 5751 5750 5749 5748 5748 5747 5746 5745 5744 5743 5742 5741 5740 5738 5738 5736 5735 5734 5733 5731 5730 5728 5727 5726 5725 5724 5723 5722 5720 5719 5718 5717 5715 5714 5713 5712 5710 5709 5708 5707 5705 5704 5703 5701 5699 5698 5696 5694 5693 5691 5690 5688 5687 5685 5683 5682 5680 5678 5677 5675 5673
5753 5753 5752 5752 5751 5751 5750 5749 5748 5748 5747 5746 5745 5744 5743 5742 5741 5740 5739 5738 5737 5736 5735 5734 5733 5732 5730 5729 5728 5726 5725 5724 5723 5721 5720 5719 5718 5716 5715 5714 5713 5711 5710 5709 5708 5706 5705 5704 5702 5701 5699 5698 5696 5694 5693 5691 5689 5688 5686 5685 5683 5681 5680 5678 5677 5675 5673 5671 5669
5750 5750 5750 5749 5749 5748 5748 5747 5746 5745 5744 5743 5743 5742 5741 5740 5738 5738 5737 5736 5735 5734 5733 5732 5731 5729 5728 5727 5725 5724 5722 5721 5720 5718 5717 5716 5715 5713 5712 5711 5710 5708 5707 5706 5705 5703 5702 5701 5699 5698 5696 5694 5693 5691 5689 5688 5686 5684 5683 5681 5680 5678 5676 5674 5673 5671 5669 5667 5665
5748 5748 5747 5747 5746 5746 5745 5744 5743 5743 5742 5741 5740 5739 5738 5737 5736 5735 5734 5733 5733 5732 5730 5729 5728 5727 5725 5724 5723 5721 5720 5718 5717 5716 5714 5713 5712 5711 5709 5708 5707 5706 5704 5703 5702 5701 5699 5698 5696 5694 5693 5691 5689 5688 5686 5684 5683 5681 5679 5678 5676 5674 5672 5670 5668 5666 5664 5663 5661
5745 5745 5745 5744 5743 5743 5742 5742 5741 5740 5739 5738 5737 5736 5735 5734 5734 5733 5732 5731 5730 5729 5728 5726 5725 5724 5723 5721 5720 5718 5717 5715 5714 5713 5712 5711 5709 5708 5707 5705 5704 5703 5702 5700 5699 5698 5696 5694 5693 5691 5689 5688 5686 5684 5683 5681 5679 5678 5676 5674 5672 5670 5668 5666 5664 5662 5660 5658 5657
5743 5743 5742 5741 5741 5740 5739 5739 5738 5737 5736 5735 5734 5733 5733 5732 5731 5730 5729 5728 5727 5726 5725 5723 5722 5721 5720 5718 5717 5715 5714 5713 5712 5710 5709 5708 5707 5705 5704 5703 5702 5700 5699 5698 5696 5694 5693 5691 5689 5688 5686 5684 5682 5681 5679 5677 5675 5674 5672 5670 5668 5666 5664 5662 5660 5658 5656 5654 5652
5740 5740 5739 5738 5738 5737 5737 5736 5735 5734 5733 5732 5732 5731 5730 5729 5728 5728 5727 5725 5724 5723 5722 5720 5719 5718 5717 5715 5714 5713 5711 5710 5709 5708 5707 5705 5704 5703 5702 5700 5699 5698 5696 5694 5693 5691 5689 5688 5686 5684 5682 5680 5679 5677 5675 5673 5672 5670 5668 5666 5664 5662 5660 5658 5656 5654 5652 5650 5648
5738 5737 5736 5736 5735 5734 5734 5733 5732 5731 5730 5729 5729 5728 5728 5727 5726 5725 5723 5722 5721 5720 5718 5718 5716 5715 5714 5713 5711 5710 5709 5708 5706 5705 5704 5703 5702 5700 5699 5698 5696 5695 5693 5691 5690 5688 5686 5684 5682 5680 5678 5677 5675 5673 5672 5670 5668 5666 5664 5662 5660 5658 5656 5654 5652 5650 5648 5645 5643
5735 5734 5734 5733 5733 5732 5731 5730 5729 5728 5728 5727 5726 5725 5725 5724 5723 5722 5721 5719 5718 5717 5716 5714 5713 5712 5711 5710 5709 5708 5706 5705 5704 5703 5702 5700 5699 5698 5696 5695 5693 5692 5690 5688 5686 5684 5683 5681 5679 5677 5675 5673 5672 5670 5668 5666 5664 5662 5660 5658 5656 5654 5652 5650 5648 5645 5643 5641 5638
5733 5732 5731 5730 5730 5729 5728 5727 5726 5725 5725 5724 5723 5723 5722 5721 5720 5719 5718 5716 5715 5714 5713 5712 5711 5709 5708 5707 5706 5705 5704 5703 5701 5700 5699 5698 5696 5695 5693 5692 5690 5688 5686 5684 5683 5681 5679 5677 5675 5673 5672 5670 5668 5666 5664 5662 5660 5658 5656 5654 5652 5650 5648 5646 5643 5641 5639 5636 5634
5730 5729 5728 5728 5727 5726 5725 5724 5723 5723 5722 5721 5720 5720 5719 5718 5717 5716 5715 5713 5713 5711 5710 5709 5708 5707 5706 5705 5703 5702 5701 5700 5698 5697 5696 5694 5693 5691 5690 5688 5686 5685 5683 5681 5679 5677 5675 5673 5672 5670 5668 5666 5664 5663 5660 5658 5656 5654 5652 5650 5648 5646 5644 5642 5639 5637 5634 5632 5629
5728 5727 5726 5725 5724 5723 5723 5722 5721 5720 5719 5718 5718 5717 5716 5715 5714 5713 5712 5711 5710 5708 5708 5706 5705 5704 5703 5702 5701 5699 5698 5697 5696 5694 5693 5691 5690 5688 5686 5685 5683 5681 5679 5678 5676 5674 5672 5670 5668 5666 5665 5663 5661 5659 5657 5655 5653 5651 5648 5646 5644 5642 5640 5637 5635 5632 5629 5627 5624
5725 5724 5723 5723 5722 5721 5720 5719 5718 5717 5717 5716 5715 5714 5713 5712 5712 5710 5709 5708 5707 5706 5705 5704 5703 5701 5700 5699 5698 5696 5695 5694 5693 5691 5689 5688 5686 5685 5683 5681 5680 5678 5676 5674 5672 5670 5668 5667 5665 5663 5661 5659 5657 5655 5653 5651 5649 5647 5645 5643 5640 5638 5635 5633 5630 5628 5625 5623 5620
5723 5722 5721 5720 5719 5718 5718 5717 5716 5715 5714 5713 5713 5712 5711 5710 5709 5708 5707 5706 5705 5703 5702 5701 5700 5698 5698 5696 5695 5693 5692 5691 5689 5688 5686 5685 5683 5681 5680 5678 5676 5674 5673 5671 5668 5667 5665 5663 5661 5659 5657 5655 5653 5651 5649 5647 5645 5643 5641 5638 5636 5634 5631 5629 5626 5623 5621 5618 5615
5720 5720 5719 5718 5717 5716 5715 5714 5713 5713 5712 5711 5710 5709 5708 5707 5706 5705 5704 5703 5702 5701 5700 5698 5697 5696 5695 5693 5692 5691 5689 5688 5686 5685 5683 5682 5680 5678 5676 5675 5673 5671 5669 5667 5665 5663 5661 5659 5657 5655 5653 5651 5649 5647 5645 5643 5641 5639 5637 5634 5632 5630 5627 5625 5622 5619 5616 5614 5611
5718 5718 5717 5716 5715 5714 5713 5713 5712 5711 5710 5708 5708 5707 5706 5705 5704 5703 5702 5701 5699 5698 5697 5696 5694 5693 5692 5691 5689 5688 5686 5685 5683 5682 5680 5678 5677 5675 5673 5671 5669 5668 5665 5663 5661 5659 5657 5655 5653 5651 5649 5647 5645 5643 5641 5639 5637 5634 5632 5630 5628 5625 5623 5620 5618 5615 5612 5609 5606
5716 5716 5715 5714 5713 5712 5711 5710 5709 5708 5708 5706 5705 5704 5703 5702 5701 5700 5699 5698 5697 5696 5694 5693 5692 5691 5689 5688 5686 5685 5683 5682 5680 5678 5677 5675 5673 5672 5670 5668 5666 5664 5662 5660 5658 5656 5654 5652 5649 5648 5645 5643 5641 5639 5637 5635 5633 5630 5628 5625 5623 5621 5618 5616 5613 5610 5608 5604 5601
5714 5714 5713 5712 5711 5710 5709 5708 5707 5706 5705 5704 5703 5702 5701 5700 5699 5698 5697 5696 5694 5693 5692 5691 5689 5688 5686 5685 5683 5682 5680 5679 5677 5675 5674 5672 5670 5668 5666 5664 5662 5660 5658 5656 5654 5652 5650 5648 5646 5643 5641 5639 5637 5635 5633 5630 5628 5626 5623 5621 5618 5616 5613 5611 5608 5606 5603 5600 5597
5713 5712 5711 5710 5709 5708 5707 5706 5705 5704 5703 5702 5701 5700 5698 5698 5696 5695 5694 5693 5692 5691 5689 5688 5686 5685 5683 5682 5680 5679 5677 5676 5674 5672 5670 5668 5667 5665 5663 5661 5659 5657 5654 5652 5650 5648 5646 5643 5641 5639 5637 5635 5633 5631 5628 5626 5623 5621 5619 5616 5614 5611 5609 5606 5603 5601 5598 5595 5592
5710 5709 5708 5708 5707 5706 5705 5703 5703 5702 5700 5699 5698 5697 5696 5695 5694 5693 5692 5690 5689 5688 5687 5685 5683 5682 5680 5679 5677 5676 5674 5672 5671 5669 5667 5665 5663 5661 5659 5657 5655 5653 5651 5648 5646 5644 5642 5639 5637 5635 5633 5630 5628 5626 5624 5622 5620 5617 5614 5612 5609 5607 5604 5601 5599 5596 5593 5591 5588
5708 5707 5706 5705 5704 5703 5702 5701 5700 5699 5698 5697 5696 5694 5693 5692 5691 5690 5689 5688 5686 5685 5683 5682 5681 5679 5678 5676 5674 5673 5671 5669 5667 5665 5663 5662 5660 5658 5656 5653 5651 5649 5647 5644 5642 5640 5638 5635 5633 5630 5628 5626 5623 5622 5620 5618 5615 5613 5610 5608 5605 5602 5599 5597 5594 5591 5589 5586 5583
5705 5704 5704 5703 5702 5701 5700 5699 5698 5697 5695 5694 5693 5692 5691 5690 5688 5687 5686 5685 5683 5682 5681 5679 5678 5676 5674 5673 5671 5669 5667 5666 5664 5662 5660 5658 5656 5654 5652 5650 5647 5645 5643 5640 5638 5636 5633 5631 5629 5626 5624 5621 5619 5617 5615 5613 5611 5608 5606 5603 5601 5598 5595 5593 5590 5587 5584 5581 5578
5703 5702 5701 5700 5699 5698 5697 5696 5695 5694 5693 5692 5691 5689 5688 5687 5686 5685 5683 5682 5680 5679 5678 5676 5674 5673 5671 5669 5668 5666 5664 5662 5660 5658 5657 5654 5653 5650 5648 5646 5643 5641 5638 5636 5634 5631 5629 5627 5624 5622 5619 5617 5614 5612 5610 5608 5605 5603 5601 5598 5596 5593 5590 5588 5585 5582 5579 5576 5573
5701 5700 5699 5698 5697 5696 5695 5694 5693 5691 5690 5689 5688 5687 5686 5684 5683 5682 5680 5679 5677 5676 5674 5673 5671 5670 5668 5666 5664 5663 5661 5659 5657 5655 5653 5651 5649 5647 5644 5642 5639 5637 5634 5632 5629 5627 5625 5622 5620 5617 5615 5612 5610 5607 5605 5603 5600 5598 5596 5593 5591 5588 5585 5582 5579 5576 5573 5570 5567
5699 5698 5697 5696 5695 5693 5692 5691 5690 5689 5688 5687 5685 5684 5683 5682 5680 5679 5677 5676 5674 5673 5671 5670 5668 5666 5664 5663 5661 5659 5657 5655 5653 5651 5649 5647 5645 5643 5640 5638 5635 5633 5630 5628 5625 5623 5620 5618 5615 5613 5610 5608 5605 5603 5600 5598 5596 5593 5591 5588 5586 5583 5580 5577 5574 5571 5568 5564 5561
5696 5695 5694 5693 5692 5691 5690 5689 5688 5686 5685 5684 5683 5682 5680 5679 5677 5676 5674 5673 5671 5669 5668 5666 5665 5663 5661 5659 5658 5655 5653 5652 5649 5648 5645 5643 5641 5639 5637 5634 5631 5629 5626 5623 5621 5618 5616 5613 5611 5608 5606 5603 5601 5599 5596 5594 5591 5589 5586 5583 5581 5578 5575 5572 5568 5565 5562 5559 5556
5694 5693 5692 5691 5690 5688 5687 5686 5685 5684 5683 5681 5680 5678 5677 5676 5674 5673 5671 5670 5668 5666 5665 5663 5661 5659 5658 5656 5654 5652 5650 5648 5646 5643 5641 5639 5637 5635 5633 5630 5628 5625 5622 5619 5617 5614 5612 5609 5607 5604 5602 5599 5597 5594 5592 5589 5587 5584 5582 5579 5576 5573 5570 5567 5563 5560 5557 5554 5550
5692 5691 5689 5688 5687 5686 5685 5683 5682 5681 5680 5678 5677 5676 5674 5673 5671 5670 5668 5666 5665 5663 5662 5660 5658 5656 5654 5652 5650 5648 5646 5644 5642 5640 5638 5635 5633 5631 5629 5626 5624 5621 5618 5615 5613 5610 5608 5605 5603 5600 5597 5595 5592 5590 5587 5585 5582 5579 5577 5574 5571 5568 5565 5562 5558 5555 5552 5548 5544
5689 5688 5687 5686 5685 5683 5682 5681 5679 5678 5677 5676 5674 5673 5671 5670 5668 5667 5665 5663 5662 5660 5658 5657 5655 5653 5651 5649 5647 5645 5643 5640 5638 5636 5633 5631 5629 5627 5625 5622 5620 5617 5614 5611 5608 5606 5603 5601 5598 5595 5593 5590 5587 5585 5583 5580 5577 5575 5572 5570 5567 5564 5561 5557 5553 5550 5546 5542 5538
5687 5686 5684 5683 5682 5681 5679 5678 5677 5675 5674 5673 5671 5670 5668 5667 5665 5663 5662 5660 5658 5657 5655 5653 5651 5649 5648 5645 5643 5641 5639 5637 5634 5632 5630 5627 5625 5623 5620 5618 5616 5613 5610 5607 5604 5601 5599 5596 5593 5591 5588 5585 5583 5580 5578 5575 5573 5570 5568 5565 5562 5559 5556 5552 5548 5544 5540 5536 5532
5684 5683 5682 5680 5679 5678 5676 5675 5674 5673 5671 5669 5668 5667 5665 5663 5662 5660 5658 5657 5655 5653 5652 5650 5648 5646 5644 5642 5640 5637 5635 5633 5630 5628 5626 5623 5621 5618 5616 5614 5611 5609 5606 5603 5600 5597 5595 5592 5589 5586 5583 5581 5578 5575 5573 5570 5568 5566 5563 5560 5557 5553 5550 5547 5543 5539 5534 5530 5525
5681 5680 5679 5678 5676 5675 5673 5672 5671 5669 5668 5667 5665 5663 5662 5660 5659 5657 5655 5654 5652 5650 5648 5646 5644 5642 5640 5638 5636 5634 5631 5629 5626 5624 5621 5619 5617 5614 5612 5609 5607 5605 5602 5599 5596 5593 5591 5588 5585 5582 5579 5576 5573 5571 5568 5566 5563 5560 5558 5555 5552 5548 5545 5541 5537 5533 5529 5524 5519
5678 5677 5676 5674 5673 5672 5671 5669 5668 5666 5665 5663 5662 5661 5659 5657 5656 5654 5652 5651 5649 5647 5645 5643 5641 5639 5637 5634 5632 5630 5628 5625 5622 5620 5617 5615 5612 5610 5608 5605 5603 5600 5598 5595 5593 5589 5587 5584 5581 5578 5575 5572 5569 5566 5563 5561 5558 5555 5552 5549 5546 5543 5539 5535 5531 5527 5522 5518 5513